Regional Weather Roundup
Issued by NWS

Home | Current Version | Previous Version | Graphics & Text | Print | Product List | Glossary Off
Versions: 1 2 3 4 5 6 7 8 9 10 11 12 13 14 15 16 17 18 19 20 21 22 23 24 25 26 27 28 29 30 31 32 33 34 35 36 37 38 39 40 41 42 43 44 45 46 47 48 49 50

000
ASUS43 KLSX 011507
RWRMO

WEATHER SUMMARY FOR MISSOURI
NATIONAL WEATHER SERVICE SPRINGFIELD MO
1000 AM CDT FRI AUG 01 2014

NOTE: "FAIR" INDICATES FEW OR NO CLOUDS BELOW 12,000 FEET WITH NO
       SIGNIFICANT WEATHER AND/OR OBSTRUCTIONS TO VISIBILITY.
       CURRENT SKY AND/OR WEATHER CONDITIONS ARE NOT AVAILABLE FOR
       CHILLICOTHE AND FARMINGTON.

MOZ001>031-035>038-043-044-053-054-011600-
...NORTHERN AND WESTERN MISSOURI...

CITY           SKY/WX    TMP DP  RH WIND       PRES   REMARKS
KANSAS CTY INT PTSUNNY   73  63  70 E5        30.09S
KANSAS C DTWN  CLOUDY    73  62  68 E6        30.08S
LEE`S SUMMIT   CLOUDY    71  62  73 E7        30.10S
ST JOSEPH      CLOUDY    71  65  81 E7        30.08S
CHILLICOTHE      N/A     71  60  68 NE5       30.11S
KIRKSVILLE     PTSUNNY   74  61  63 NW5       30.11S

$$
MOZ066>068-077>081-088>096-101>105-011600-
...SOUTHWEST MISSOURI...

CITY           SKY/WX    TMP DP  RH WIND       PRES   REMARKS
SPRINGFIELD    CLOUDY    66  64  93 CALM      30.13R FOG
JOPLIN         CLOUDY    70  65  84 VRB5      30.12S

$$
MOZ032>034-039>042-045>050-055>058-069>072-011600-
...CENTRAL MISSOURI...

CITY           SKY/WX    TMP DP  RH WIND       PRES   REMARKS
COLUMBIA       MOSUNNY   75  61  61 NW7       30.10R
JEFFERSON CITY MOSUNNY   74  65  73 CALM      30.08S
ROLLA          SUNNY     75  62  64 VRB5      30.10R
SEDALIA        PTSUNNY   73  66  78 N6        30.11R
WHITEMAN AFB   PTSUNNY   68  54  60 N6        30.10S
OSAGE BEACH    SUNNY     73  64  73 CALM      30.10S

$$
MOZ051-052-059>065-011600-
...EAST CENTRAL MISSOURI...

CITY           SKY/WX    TMP DP  RH WIND       PRES   REMARKS
ST LOUIS INTL  MOSUNNY   80  65  59 CALM      30.09F
SPIRIT OF STL  MOSUNNY   78  66  66 CALM      30.08S
ST CHARLES     SUNNY     76  67  73 VRB3      30.08S

$$
MOZ072>076-082>087-097>100-106>115-011600-
...SOUTH CENTRAL AND SOUTHEAST MISSOURI...

CITY           SKY/WX    TMP DP  RH WIND       PRES   REMARKS
CAPE GIRARDEAU MOSUNNY   76  66  71 CALM      30.09F
FARMINGTON     PTSUNNY   70  66  88 SW3       30.14S
POPLAR BLUFF   PTSUNNY   75  64  68 CALM      30.09R
WEST PLAINS    CLOUDY    69  63  81 CALM      30.13F

$$


USA.gov is the U.S. government's official web portal to all federal, state and local government web resources and services.